This demonstration page uses our WeatherBlox Daily Observations layout. Learn more.

Left ArrowRight Arrow

36.19886, -115.1175

Hourly Observations for May 19, 2020

Temp ( °F °C ) Dew Point ( °F °C ) Humidity (%) Winds ( mph kmh ) Pressure ( in mb ) Visibility ( mi km ) Precip ( " mm )
12:53 am 00:53 Clear 70 21.1 38 3.3 31 31 SW 14 22 29.72 1006 10 16 N/A
1:53 am 01:53 Clear 68 20 39 3.9 35 35 SW 8 13 29.72 1007 10 16 N/A
2:53 am 02:53 Clear 66 18.9 38 3.3 36 36 SW 10 17 29.71 1006 10 16 N/A
3:53 am 03:53 Clear 64 17.8 36 2.2 35 35 S 13 20 29.73 1007 10 16 N/A
4:53 am 04:53 Clear 64 17.8 35 1.7 34 34 SSW 14 22 29.73 1007 10 16 N/A
5:53 am 05:53 Sunny 63 17.2 32 undefined 31 31 SSW 12 19 29.74 1007 10 16 N/A
6:53 am 06:53 Sunny 63 17.2 34 1.1 34 34 SSW 16 26 29.75 1008 10 16 N/A
7:53 am 07:53 Sunny 64 17.8 31 -0.6 29 29 SSW 14 22 29.77 1008 10 16 N/A
8:53 am 08:53 Sunny 67 19.4 28 -2.2 23 23 SW 17 28 29.78 1008 10 16 N/A
9:53 am 09:53 Sunny 68 20 28 -2.2 22 22 SW 20 31 29.78 1009 10 16 N/A
10:53 am 10:53 Sunny 72 22.2 27 -2.8 19 19 W 17 28 29.78 1008 10 16 N/A
11:05 am 11:05 Sunny 73 22.8 29 -1.7 19 19 WNW 24 39 29.69 1005 10 16 N/A
11:18 am 11:18 Sunny 73 22.8 28 -2.2 19 19 NW 17 28 29.69 1005 10 16 N/A
11:53 am 11:53 Partly Cloudy 72 22.2 28 -2.2 19 19 WNW 14 22 29.80 1009 10 16 N/A
12:19 pm 12:19 Mostly Sunny 73 22.8 23 -5 15 15 W 15 24 29.70 1006 10 16 N/A
12:53 pm 12:53 Sunny 72 22.2 22 -5.6 15 15 WSW 13 20 29.80 1009 10 16 N/A
1:53 pm 13:53 Sunny 73 22.8 23 -5 15 15 SSW 14 22 29.80 1009 10 16 N/A
2:53 pm 14:53 Sunny 74 23.3 20 -6.7 13 13 SW 14 22 29.80 1009 10 16 N/A
3:53 pm 15:53 Mostly Sunny 74 23.3 23 -5 15 15 WSW 13 20 29.80 1009 10 16 N/A
4:53 pm 16:53 Sunny 75 23.9 19 -7.2 12 12 WSW 18 30 29.81 1009 10 16 N/A
5:53 pm 17:53 Mostly Sunny 73 22.8 18 -7.8 12 12 SW 21 33 29.81 1009 10 16 N/A
6:53 pm 18:53 Sunny 73 22.8 21 -6.1 14 14 WNW 14 22 29.83 1010 10 16 N/A
7:25 pm 19:25 Partly Cloudy 71 21.7 25 -3.9 18 18 NW 18 30 29.75 1007 10 16 N/A
7:35 pm 19:35 Mostly Cloudy 69 20.6 29 -1.7 22 22 NW 18 30 29.76 1008 10 16 N/A
7:53 pm 19:53 Mostly Cloudy 68 20 29 -1.7 23 23 NNW 18 30 29.85 1011 10 16 N/A
8:53 pm 20:53 Mostly Clear 67 19.4 29 -1.7 24 24 NW 17 28 29.88 1012 10 16 N/A
9:53 pm 21:53 Clear 66 18.9 30 -1.1 26 26 NNW 17 28 29.89 1012 10 16 N/A
10:53 pm 22:53 Clear 66 18.9 29 -1.7 25 25 NW 14 22 29.90 1012 10 16 N/A
11:53 pm 23:53 Clear 64 17.8 32 undefined 30 30 NNW 16 26 29.91 1013 10 16 N/A

Powered by AerisWeather